PKLXR WARR-WAHQ

Flight info

Callsign PKLXR
Flight time N/A
Altitude 24000
Route LASEM DCT SLO
Aircraft A20N/M-SDE2E3FGHIRWXY/LB1

Departure

Time 2026-05-01 07:59
Airport Juanda International Airport (WARR)

Arrival

Time N/A
Airport Adisoemarmo International Airport (WAHQ)
Time Latitude Longitude Altitude Speed Heading
2026-05-01 07:35 -7.37668 112.79882 20 ft 0 kts
2026-05-01 07:45 -7.37681 112.79881 20 ft 3 kts 23°
2026-05-01 07:46 -7.37697 112.79873 20 ft 3 kts
2026-05-01 07:46 -7.37715 112.79875 20 ft 3 kts 352°
2026-05-01 07:46 -7.37746 112.79888 23 ft 2 kts 276°
2026-05-01 07:47 -7.37745 112.79903 18 ft 0 kts 257°
2026-05-01 07:49 -7.37746 112.79900 22 ft 1 kts 258°
2026-05-01 07:49 -7.37754 112.79830 20 ft 5 kts 233°
2026-05-01 07:49 -7.37781 112.79812 18 ft 4 kts 208°
2026-05-01 07:50 -7.37807 112.79807 18 ft 4 kts 191°
2026-05-01 07:50 -7.37874 112.79794 19 ft 5 kts 190°
2026-05-01 07:50 -7.37913 112.79787 18 ft 6 kts 189°
2026-05-01 07:51 -7.37959 112.79772 18 ft 7 kts 217°
2026-05-01 07:51 -7.37973 112.79725 18 ft 8 kts 276°
2026-05-01 07:51 -7.37964 112.79670 20 ft 9 kts 279°
2026-05-01 07:52 -7.37942 112.79531 18 ft 12 kts 279°
2026-05-01 07:52 -7.37928 112.79445 18 ft 13 kts 279°
2026-05-01 07:52 -7.37912 112.79349 18 ft 15 kts 280°
2026-05-01 07:53 -7.37876 112.79125 19 ft 18 kts 279°
2026-05-01 07:53 -7.37856 112.78996 18 ft 19 kts 279°
2026-05-01 07:53 -7.37834 112.78856 20 ft 21 kts 279°
2026-05-01 07:53 -7.37810 112.78705 18 ft 23 kts 279°
2026-05-01 07:54 -7.37764 112.78415 18 ft 21 kts 278°
2026-05-01 07:55 -7.37687 112.77943 18 ft 25 kts 279°
2026-05-01 07:55 -7.37633 112.77609 18 ft 14 kts 278°
2026-05-01 07:56 -7.37626 112.77402 19 ft 10 kts 227°
2026-05-01 07:56 -7.37741 112.77374 17 ft 9 kts 166°
2026-05-01 07:57 -7.37775 112.77417 18 ft 8 kts 103°
2026-05-01 07:57 -7.37776 112.77426 18 ft 0 kts 100°
2026-05-01 07:58 -7.37790 112.77503 18 ft 46 kts 100°
2026-05-01 07:58 -7.38069 112.79176 307 ft 165 kts 99°
2026-05-01 07:59 -7.38462 112.81469 1863 ft 191 kts 99°
2026-05-01 07:59 -7.38948 112.84454 3248 ft 243 kts 99°
2026-05-01 08:00 -7.34324 112.88302 7834 ft 273 kts 354°
2026-05-01 08:01 -7.28475 112.87858 10932 ft 303 kts 357°
2026-05-01 08:01 -7.26289 112.87766 11647 ft 323 kts 358°
2026-05-01 08:01 -7.24013 112.87692 12641 ft 332 kts 358°
2026-05-01 08:02 -7.19312 112.87561 14776 ft 343 kts 358°
2026-05-01 08:02 -7.16904 112.87498 15797 ft 349 kts 358°
2026-05-01 08:03 -7.12422 112.85786 17687 ft 359 kts 315°
2026-05-01 08:03 -7.11021 112.83706 18576 ft 363 kts 292°
2026-05-01 08:03 -7.10427 112.78616 20302 ft 373 kts 272°
2026-05-01 08:04 -7.10087 112.74239 21650 ft 381 kts 276°
2026-05-01 08:04 -7.09190 112.68014 23376 ft 392 kts 279°
2026-05-01 08:05 -7.08417 112.63451 23970 ft 395 kts 280°
2026-05-01 08:05 -7.07939 112.60724 24001 ft 397 kts 280°
2026-05-01 08:05 -7.07453 112.57984 24000 ft 398 kts 280°
2026-05-01 08:06 -7.06312 112.51610 24000 ft 398 kts 280°
2026-05-01 08:06 -7.05491 112.47044 24000 ft 398 kts 280°
2026-05-01 08:07 -7.04503 112.41554 24000 ft 398 kts 280°
2026-05-01 08:07 -7.03515 112.36067 24000 ft 398 kts 280°
2026-05-01 08:08 -7.03018 112.33313 24000 ft 398 kts 280°
2026-05-01 08:08 -7.01696 112.27901 24001 ft 398 kts 290°
2026-05-01 08:09 -6.99669 112.22716 24000 ft 398 kts 291°
2026-05-01 08:09 -6.98636 112.20129 24000 ft 398 kts 291°
2026-05-01 08:09 -6.97605 112.17540 24000 ft 399 kts 291°
2026-05-01 08:10 -6.95229 112.12505 24001 ft 399 kts 301°
2026-05-01 08:10 -6.92222 112.07857 24000 ft 399 kts 303°
2026-05-01 08:11 -6.89161 112.03205 24000 ft 399 kts 303°
2026-05-01 08:11 -6.86107 111.98548 24000 ft 399 kts 303°
2026-05-01 08:12 -6.83057 111.93891 24000 ft 399 kts 303°
2026-05-01 08:12 -6.81530 111.91561 24000 ft 399 kts 303°
2026-05-01 08:12 -6.78474 111.86895 24000 ft 399 kts 303°
2026-05-01 08:13 -6.76948 111.84565 24000 ft 399 kts 303°
2026-05-01 08:13 -6.75423 111.82238 24000 ft 398 kts 303°
2026-05-01 08:13 -6.72370 111.77580 24000 ft 398 kts 303°
2026-05-01 08:14 -6.70845 111.75253 24000 ft 398 kts 303°
2026-05-01 08:14 -6.69321 111.72928 24000 ft 398 kts 303°
2026-05-01 08:14 -6.67796 111.70602 24000 ft 398 kts 303°
2026-05-01 08:14 -6.66288 111.68302 24000 ft 398 kts 303°
2026-05-01 08:15 -6.64883 111.65903 23998 ft 398 kts 294°
2026-05-01 08:15 -6.64254 111.60477 24000 ft 397 kts 257°
2026-05-01 08:15 -6.65290 111.57918 24000 ft 397 kts 238°
2026-05-01 08:16 -6.66985 111.55726 24001 ft 398 kts 229°
2026-05-01 08:16 -6.68852 111.53670 23998 ft 396 kts 227°
2026-05-01 08:16 -6.70692 111.51685 23912 ft 380 kts 227°
2026-05-01 08:16 -6.72465 111.49764 23677 ft 369 kts 227°
2026-05-01 08:17 -6.74183 111.47891 23432 ft 359 kts 227°
2026-05-01 08:17 -6.75856 111.46060 23193 ft 350 kts 227°
2026-05-01 08:17 -6.77482 111.44276 22943 ft 342 kts 227°
2026-05-01 08:17 -6.79068 111.42532 22698 ft 334 kts 227°
2026-05-01 08:18 -6.80620 111.40826 22450 ft 327 kts 228°
2026-05-01 08:18 -6.83621 111.37520 21957 ft 313 kts 228°
2026-05-01 08:19 -6.86499 111.34350 21463 ft 301 kts 228°
2026-05-01 08:19 -6.87896 111.32810 21215 ft 295 kts 228°
2026-05-01 08:19 -6.89252 111.31315 20970 ft 290 kts 228°
2026-05-01 08:19 -6.90604 111.29825 20721 ft 285 kts 228°
2026-05-01 08:20 -6.91931 111.28362 20473 ft 281 kts 228°
2026-05-01 08:20 -6.93236 111.26923 20224 ft 276 kts 228°
2026-05-01 08:20 -6.94525 111.25503 19976 ft 272 kts 228°
2026-05-01 08:20 -6.95793 111.24104 19725 ft 268 kts 228°
2026-05-01 08:21 -6.97043 111.22726 19476 ft 265 kts 228°
2026-05-01 08:21 -6.98278 111.21365 19227 ft 261 kts 228°
2026-05-01 08:21 -6.99494 111.20023 18979 ft 258 kts 228°
2026-05-01 08:21 -7.00696 111.18697 18728 ft 255 kts 228°
2026-05-01 08:22 -7.01882 111.17389 18485 ft 252 kts 228°
2026-05-01 08:22 -7.03057 111.16093 18229 ft 249 kts 228°
2026-05-01 08:22 -7.04208 111.14823 17980 ft 246 kts 228°
2026-05-01 08:22 -7.05361 111.13551 17729 ft 243 kts 228°
2026-05-01 08:23 -7.06499 111.12295 17479 ft 242 kts 228°
2026-05-01 08:23 -7.07633 111.11043 17226 ft 242 kts 228°
2026-05-01 08:23 -7.08764 111.09795 16961 ft 241 kts 228°
2026-05-01 08:23 -7.09889 111.08554 16739 ft 240 kts 228°
2026-05-01 08:24 -7.11012 111.07315 16481 ft 239 kts 228°
2026-05-01 08:24 -7.12128 111.06082 16232 ft 238 kts 228°
2026-05-01 08:24 -7.13239 111.04855 15984 ft 237 kts 228°
2026-05-01 08:24 -7.14347 111.03633 15733 ft 236 kts 228°
2026-05-01 08:25 -7.15450 111.02414 15483 ft 235 kts 228°
2026-05-01 08:25 -7.16548 111.01203 15234 ft 234 kts 228°
2026-05-01 08:25 -7.17627 111.00011 14990 ft 233 kts 228°
2026-05-01 08:25 -7.18721 110.98803 14736 ft 232 kts 228°
2026-05-01 08:26 -7.19807 110.97604 14483 ft 231 kts 228°
2026-05-01 08:26 -7.20889 110.96409 14237 ft 230 kts 228°
2026-05-01 08:26 -7.21966 110.95219 13987 ft 229 kts 228°
2026-05-01 08:26 -7.23038 110.94035 13740 ft 229 kts 228°
2026-05-01 08:27 -7.24107 110.92854 13488 ft 228 kts 228°
2026-05-01 08:27 -7.25173 110.91676 13238 ft 227 kts 228°
2026-05-01 08:27 -7.26232 110.90505 13014 ft 226 kts 228°
2026-05-01 08:27 -7.27305 110.89319 12642 ft 230 kts 228°
2026-05-01 08:28 -7.28371 110.88142 12392 ft 227 kts 228°
2026-05-01 08:28 -7.29431 110.86970 12154 ft 225 kts 228°
2026-05-01 08:28 -7.30479 110.85812 11921 ft 222 kts 228°
2026-05-01 08:28 -7.31517 110.84665 11664 ft 221 kts 228°
2026-05-01 08:29 -7.32549 110.83524 11410 ft 220 kts 228°
2026-05-01 08:29 -7.33579 110.82385 11151 ft 219 kts 228°
2026-05-01 08:29 -7.34633 110.81308 10887 ft 219 kts 218°
2026-05-01 08:29 -7.35954 110.80561 10615 ft 218 kts 201°
2026-05-01 08:30 -7.37400 110.80102 10361 ft 218 kts 195°
2026-05-01 08:30 -7.38866 110.79728 10106 ft 217 kts 194°
2026-05-01 08:30 -7.40333 110.79380 9844 ft 216 kts 193°
2026-05-01 08:30 -7.41797 110.79042 9574 ft 215 kts 193°
2026-05-01 08:31 -7.43251 110.78708 9315 ft 214 kts 193°
2026-05-01 08:31 -7.44704 110.78377 9055 ft 213 kts 193°
2026-05-01 08:31 -7.46151 110.78048 8791 ft 213 kts 193°
2026-05-01 08:31 -7.47590 110.77722 8533 ft 212 kts 193°
2026-05-01 08:32 -7.49023 110.77396 8279 ft 211 kts 193°
2026-05-01 08:32 -7.50450 110.77072 8020 ft 210 kts 193°
2026-05-01 08:32 -7.51896 110.76927 7732 ft 210 kts 168°
2026-05-01 08:32 -7.53114 110.77681 7410 ft 211 kts 124°
2026-05-01 08:33 -7.53469 110.79075 7103 ft 210 kts 80°
2026-05-01 08:33 -7.52763 110.80318 6785 ft 208 kts 35°